Hourly Data Report for September 23, 2017

All times are specified in Local Standard Time (LST). Add 1 hour to adjust for Daylight Saving Time where and when it is observed.

BAKER LAKE A
NUNAVUT

64°17'56.000" N
96°04'40.000" W
18.60 m
2300503
71926
YBK

Download Data

Hourly Data (September 2017)
Hourly Data Report for September 23, 2017
Temp Definition
°C
Dew Point Temp Definition
°C
Rel Hum Definition
%
Wind Dir Definition
10's deg

Wind Spd Definition
km/h
Visibility Definition
km
Stn Press Definition
kPa
Hmdx Definition


Wind Chill Definition


Weather Definition


TIME
00:00 Legend Double Dagger -1.4 -3.6 85 33 24 24.1 102.18   -8 Clear
01:00 Legend Double Dagger -1.6 -3.7 85 33 23 24.1 102.22   -8 LegendNANA
02:00 Legend Double Dagger -2.2 -3.8 89 31 21 24.1 102.24   -8 LegendNANA
03:00 Legend Double Dagger -0.7 -3.0 84 32 16 24.1 102.25   -5 Mostly Cloudy
04:00 Legend Double Dagger -0.8 -3.8 81 33 13 24.1 102.27   -5 LegendNANA
05:00 Legend Double Dagger -1.0 -3.4 84 33 17 24.1 102.25   -6 Snow
06:00 Legend Double Dagger -1.3 -4.0 82 31 17 40.2 102.25   -6 Snow
07:00 Legend Double Dagger -1.1 -4.1 80 30 13 40.2 102.25   -5 Snow
08:00 Legend Double Dagger -0.1 -3.8 76 32 17 32.2 102.27   -5 LegendNANA
09:00 Legend Double Dagger 0.3 -3.5 75 31 10 32.2 102.32     Cloudy
10:00 Legend Double Dagger 0.7 -3.8 72 34 8 32.2 102.33     LegendNANA
11:00 Legend Double Dagger 0.7 -4.7 68 25 13 32.2 102.33     LegendNANA
12:00 Legend Double Dagger 0.8 -4.7 67 34 10 32.2 102.29     Mostly Cloudy
13:00 Legend Double Dagger 1.6 -4.7 63 34 14 32.2 102.29     LegendNANA
14:00 Legend Double Dagger 2.0 -4.8 61 34 13 32.2 102.25     LegendNANA
15:00 Legend Double Dagger 2.6 -4.7 59 32 16 32.2 102.24     Mostly Cloudy
16:00 Legend Double Dagger 2.3 -4.5 61 30 10 32.2 102.23     LegendNANA
17:00 Legend Double Dagger 1.6 -4.8 62 28 14 32.2 102.22     LegendNANA
18:00 Legend Double Dagger -0.7 -4.8 74 29 16 32.2 102.23   -5 Mainly Clear
19:00 Legend Double Dagger -2.1 -5.1 80 29 19 32.2 102.24   -8 LegendNANA
20:00 Legend Double Dagger -2.4 -5.3 81 29 17 24.1 102.21   -8 LegendNANA
21:00 Legend Double Dagger -2.6 -4.5 87 31 16 24.1 102.19   -8 Clear
22:00 Legend Double Dagger -3.2 -5.1 86 30 17 24.1 102.19   -9 LegendNANA
23:00 Legend Double Dagger -3.6 -5.9 85 30 15 24.1 102.19   -9 LegendNANA

Notes on Data Quality.

Legend

  • E = Estimated
  • M = Missing
  • NA = Not Available
  • ‡ = Partner data that is not subject to review by the National Climate Archives
Date modified: